This is the latest recevied weather packets stored in our database for station/object SP1BMW-13. If no packets are shown the sender has not sent any weather packets the latest 1 day(s).
| Time | Temp. | Humidity | Pressure | Rain* | Wind** | Luminosity | Snow |
|---|---|---|---|---|---|---|---|
| 1777981066 | 14.44° C | 87% | 1009 hPa | 0 mm | 0 m/s | 281 W/m² | - |
| 1777981006 | 14.44° C | 87% | 1009 hPa | 0 mm | 0 m/s | 264 W/m² | - |
| 1777980947 | 14.44° C | 86% | 1008.9 hPa | 0 mm | 0 m/s | 268 W/m² | - |
| 1777980887 | 14.44° C | 84% | 1008.9 hPa | 0 mm | 0.45 m/s, 46° | 273 W/m² | - |
| 1777980827 | 14.44° C | 85% | 1008.9 hPa | 0 mm | 0.89 m/s, 53° | 268 W/m² | - |
| 1777980767 | 14.44° C | 85% | 1009 hPa | 0 mm | 0.45 m/s, 46° | 270 W/m² | - |
| 1777980706 | 14.44° C | 87% | 1009.1 hPa | 0 mm | 0.89 m/s, 44° | 274 W/m² | - |
| 1777980647 | 14.44° C | 86% | 1009.2 hPa | 0 mm | 0 m/s | 274 W/m² | - |
| 1777980587 | 14.44° C | 85% | 1008.9 hPa | 0 mm | 0.45 m/s, 327° | 277 W/m² | - |
| 1777980527 | 14.44° C | 86% | 1008.9 hPa | 0 mm | 0.89 m/s, 336° | 289 W/m² | - |
| 1777980466 | 14.44° C | 85% | 1009 hPa | 0 mm | 0.45 m/s, 56° | 306 W/m² | - |
| 1777980406 | 14.44° C | 86% | 1009 hPa | 0 mm | 1.34 m/s, 39° | 322 W/m² | - |
| 1777980347 | 14.44° C | 88% | 1008.8 hPa | 0 mm | 0.89 m/s, 339° | 332 W/m² | - |
| 1777980286 | 14.44° C | 87% | 1008.9 hPa | 0 mm | 0.45 m/s, 358° | 338 W/m² | - |
| 1777980226 | 14.44° C | 87% | 1008.9 hPa | 0 mm | 0.89 m/s, 306° | 343 W/m² | - |
| 1777980166 | 14.44° C | 88% | 1008.9 hPa | 0 mm | 0.45 m/s, 32° | 342 W/m² | - |
| 1777980107 | 14.44° C | 88% | 1008.9 hPa | 0 mm | 0 m/s | 349 W/m² | - |
| 1777980047 | 14.44° C | 88% | 1008.8 hPa | 0 mm | 0.45 m/s, 55° | 345 W/m² | - |
| 1777979987 | 14.44° C | 89% | 1009.1 hPa | 0 mm | 0 m/s | 334 W/m² | - |
| 1777979926 | 13.89° C | 89% | 1009 hPa | 0 mm | 0 m/s | 340 W/m² | - |
| 1777979866 | 13.89° C | 89% | 1009 hPa | 0 mm | 0 m/s | 333 W/m² | - |
| 1777979806 | 13.89° C | 89% | 1009.1 hPa | 0 mm | 0.89 m/s, 355° | 334 W/m² | - |
| 1777979747 | 13.89° C | 88% | 1009 hPa | 0 mm | 0 m/s | 338 W/m² | - |
| 1777979686 | 13.89° C | 88% | 1009 hPa | 0 mm | 1.34 m/s, 335° | 342 W/m² | - |
| 1777979626 | 13.89° C | 88% | 1009.1 hPa | 0 mm | 0.45 m/s, 42° | 350 W/m² | - |
* Rain latest hour (hover to see other rain measurements)
** Current wind speed in m/s (hover to see current wind gust speed)